• In Moldova, Republic
  • List of Countries
  • For 7 days
  • Water Temperature
  • Satellite Maps
  • Weather Map
  • Weather Widgets
  • user-avatar
    Login

    Hourly Weather Hobart

    Today, 21 July, Friday

    Time Temperature Precipitation Wind Pressure Humidity
    00:00 +4°C° 0 mm 2 mps 751 mmHg 98%
    01:00 +3°C° 0 mm 2 mps 752 mmHg 98%
    02:00 +3°C° 0 mm 2 mps 752 mmHg 98%
    03:00 +3°C° 0 mm 2 mps 752 mmHg 98%
    04:00 +3°C° 0 mm 2 mps 752 mmHg 98%
    05:00 +3°C° 0 mm 2 mps 752 mmHg 98%
    06:00 +2°C° 0 mm 2 mps 752 mmHg 98%
    07:00 +2°C° 0 mm 2 mps 752 mmHg 97%
    08:00 +4°C° 0 mm 2 mps 752 mmHg 93%
    09:00 +5°C° 0 mm 2 mps 752 mmHg 88%
    10:00 +7°C° 0 mm 2 mps 752 mmHg 81%
    11:00 +10°C° 0 mm 1 mps 752 mmHg 72%
    12:00 +11°C° 0 mm 1 mps 752 mmHg 63%
    13:00 +13°C° 0 mm 1 mps 751 mmHg 54%
    14:00 +13°C° 0 mm 1 mps 751 mmHg 56%
    15:00 +12°C° 0 mm 1 mps 751 mmHg 58%
    16:00 +12°C° 0 mm 1 mps 751 mmHg 59%
    17:00 +9°C° 0 mm 1 mps 751 mmHg 67%
    18:00 +7°C° 0 mm 1 mps 751 mmHg 76%
    19:00 +4°C° 0 mm 2 mps 751 mmHg 84%
    20:00 +4°C° 0 mm 2 mps 751 mmHg 85%
    21:00 +4°C° 0 mm 2 mps 751 mmHg 87%
    22:00 +2°C° 0 mm 3 mps 751 mmHg 88%
    23:00 +2°C° 0 mm 3 mps 750 mmHg 88%

    Tomorrow, 22 July, Saturday

    Time Temperature Precipitation Wind Pressure Humidity
    00:00 +2°C° 0 mm 3 mps 750 mmHg 88%
    01:00 +2°C° 0 mm 3 mps 749 mmHg 88%
    02:00 +2°C° 0 mm 3 mps 749 mmHg 86%
    03:00 +2°C° 0 mm 3 mps 748 mmHg 84%
    04:00 +3°C° 0 mm 3 mps 747 mmHg 81%
    05:00 +3°C° 0 mm 3 mps 747 mmHg 81%
    06:00 +3°C° 0 mm 3 mps 746 mmHg 81%
    07:00 +4°C° 0 mm 3 mps 746 mmHg 81%
    08:00 +6°C° 0 mm 4 mps 746 mmHg 75%
    09:00 +8°C° 0 mm 4 mps 745 mmHg 69%
    10:00 +9°C° 0 mm 5 mps 745 mmHg 63%
    11:00 +12°C° 0 mm 5 mps 744 mmHg 61%
    12:00 +13°C° 0 mm 5 mps 743 mmHg 59%
    13:00 +14°C° 0 mm 5 mps 743 mmHg 58%
    14:00 +13°C° 0 mm 5 mps 742 mmHg 61%
    15:00 +13°C° 0 mm 4 mps 742 mmHg 64%
    16:00 +12°C° 0 mm 4 mps 741 mmHg 67%
    17:00 +11°C° 0 mm 4 mps 741 mmHg 72%
    18:00 +10°C° 0 mm 4 mps 741 mmHg 76%
    19:00 +10°C° 0 mm 4 mps 741 mmHg 81%
    20:00 +10°C° 0 mm 4 mps 740 mmHg 79%
    21:00 +10°C° 0 mm 4 mps 740 mmHg 78%
    22:00 +11°C° 0 mm 4 mps 739 mmHg 77%
    23:00 +11°C° 0.1 mm 4 mps 739 mmHg 77%

    Day after tomorrow, 23 July, Sunday

    Time Temperature Precipitation Wind Pressure Humidity
    00:00 +10°C° 0.1 mm 4 mps 738 mmHg 78%
    01:00 +10°C° 0.1 mm 4 mps 737 mmHg 79%
    02:00 +10°C° 0.2 mm 4 mps 737 mmHg 81%
    03:00 +10°C° 0.2 mm 4 mps 737 mmHg 83%
    04:00 +8°C° 0.2 mm 4 mps 736 mmHg 86%
    05:00 +8°C° 0.1 mm 4 mps 736 mmHg 87%
    06:00 +7°C° 0.1 mm 4 mps 735 mmHg 88%
    07:00 +7°C° 0.1 mm 4 mps 735 mmHg 90%
    08:00 +7°C° 0.1 mm 5 mps 735 mmHg 83%
    09:00 +8°C° 0.1 mm 7 mps 735 mmHg 76%
    10:00 +9°C° 0.1 mm 8 mps 735 mmHg 70%
    11:00 +9°C° 0.2 mm 8 mps 735 mmHg 70%
    12:00 +9°C° 0.2 mm 7 mps 735 mmHg 70%
    13:00 +10°C° 0.2 mm 7 mps 735 mmHg 70%
    14:00 +9°C° 0.2 mm 6 mps 736 mmHg 73%
    15:00 +8°C° 0.2 mm 6 mps 737 mmHg 76%
    16:00 +8°C° 0.2 mm 5 mps 737 mmHg 80%
    17:00 +7°C° 0.1 mm 5 mps 738 mmHg 83%
    18:00 +6°C° 0.1 mm 5 mps 739 mmHg 86%
    19:00 +5°C° 0.1 mm 5 mps 740 mmHg 89%
    20:00 +5°C° 0 mm 5 mps 741 mmHg 89%
    21:00 +4°C° 0 mm 4 mps 741 mmHg 90%
    22:00 +3°C° 0 mm 4 mps 742 mmHg 91%
    23:00 +3°C° 0 mm 4 mps 742 mmHg 92%

    24 July, Monday

    Time Temperature Precipitation Wind Pressure Humidity
    00:00 +1°C° 0 mm 4 mps 743 mmHg 92%
    01:00 0°C° 0 mm 4 mps 743 mmHg 93%
    02:00 0°C° 0 mm 4 mps 743 mmHg 92%
    03:00 0°C° 0 mm 4 mps 744 mmHg 91%
    04:00 0°C° 0 mm 4 mps 744 mmHg 91%
    05:00 0°C° 0 mm 4 mps 744 mmHg 90%
    06:00 0°C° 0 mm 5 mps 745 mmHg 90%
    07:00 0°C° 0 mm 5 mps 745 mmHg 90%
    08:00 +2°C° 0 mm 5 mps 746 mmHg 83%
    09:00 +3°C° 0 mm 5 mps 746 mmHg 77%
    10:00 +5°C° 0 mm 5 mps 746 mmHg 70%
    11:00 +6°C° 0 mm 5 mps 746 mmHg 65%
    12:00 +7°C° 0 mm 5 mps 746 mmHg 60%
    13:00 +8°C° 0 mm 5 mps 746 mmHg 55%
    14:00 +8°C° 0 mm 5 mps 745 mmHg 59%
    15:00 +7°C° 0 mm 5 mps 745 mmHg 62%
    16:00 +6°C° 0 mm 5 mps 745 mmHg 65%
    17:00 +5°C° 0 mm 5 mps 745 mmHg 71%
    18:00 +4°C° 0 mm 4 mps 745 mmHg 76%
    19:00 +3°C° 0 mm 4 mps 746 mmHg 81%
    20:00 +4°C° 0 mm 4 mps 746 mmHg 81%
    21:00 +4°C° 0 mm 4 mps 746 mmHg 81%
    22:00 +5°C° 0 mm 3 mps 746 mmHg 81%
    23:00 +5°C° 0 mm 3 mps 745 mmHg 83%

    25 July, Tuesday

    Time Temperature Precipitation Wind Pressure Humidity
    00:00 +5°C° 0 mm 3 mps 745 mmHg 86%
    01:00 +5°C° 0 mm 3 mps 744 mmHg 89%
    02:00 +5°C° 0 mm 3 mps 743 mmHg 89%
    03:00 +5°C° 0 mm 3 mps 743 mmHg 90%
    04:00 +5°C° 0 mm 3 mps 742 mmHg 91%
    05:00 +5°C° 0 mm 4 mps 741 mmHg 91%
    06:00 +5°C° 0 mm 4 mps 741 mmHg 90%
    07:00 +6°C° 0 mm 4 mps 740 mmHg 90%
    08:00 +7°C° 0.7 mm 4 mps 739 mmHg 89%
    09:00 +8°C° 0.7 mm 5 mps 739 mmHg 87%
    10:00 +9°C° 0.7 mm 5 mps 738 mmHg 86%
    11:00 +10°C° 0 mm 6 mps 738 mmHg 77%
    12:00 +11°C° 0 mm 7 mps 737 mmHg 67%
    13:00 +12°C° 0 mm 7 mps 736 mmHg 58%
    14:00 +11°C° 0.1 mm 7 mps 736 mmHg 62%
    15:00 +10°C° 0.1 mm 7 mps 736 mmHg 66%
    16:00 +9°C° 0.1 mm 6 mps 735 mmHg 70%
    17:00 +9°C° 0.1 mm 6 mps 736 mmHg 74%
    18:00 +8°C° 0.1 mm 6 mps 736 mmHg 77%
    19:00 +7°C° 0.1 mm 6 mps 736 mmHg 81%
    20:00 +7°C° 0.1 mm 6 mps 736 mmHg 83%
    21:00 +7°C° 0.1 mm 5 mps 737 mmHg 85%
    22:00 +7°C° 0.1 mm 5 mps 737 mmHg 87%
    23:00 +7°C° 0.5 mm 5 mps 738 mmHg 89%

    26 July, Wednesday

    Time Temperature Precipitation Wind Pressure Humidity
    00:00 +6°C° 0.5 mm 5 mps 739 mmHg 92%
    01:00 +5°C° 0.5 mm 6 mps 739 mmHg 94%
    02:00 +4°C° 0.5 mm 6 mps 740 mmHg 94%
    03:00 +5°C° 0.5 mm 5 mps 741 mmHg 94%
    04:00 +3°C° 0.5 mm 5 mps 742 mmHg 94%
    05:00 +3°C° 0.1 mm 5 mps 743 mmHg 94%
    06:00 +2°C° 0.1 mm 5 mps 744 mmHg 93%
    07:00 +2°C° 0.1 mm 5 mps 745 mmHg 93%
    08:00 +2°C° 0.1 mm 5 mps 746 mmHg 89%
    09:00 +2°C° 0.1 mm 5 mps 746 mmHg 84%
    10:00 +3°C° 0.1 mm 5 mps 747 mmHg 79%
    11:00 +3°C° 0.1 mm 5 mps 747 mmHg 74%
    12:00 +5°C° 0.1 mm 5 mps 748 mmHg 69%
    13:00 +5°C° 0.1 mm 5 mps 748 mmHg 64%
    14:00 +5°C° 0.2 mm 5 mps 748 mmHg 66%
    15:00 +3°C° 0.2 mm 5 mps 749 mmHg 67%
    16:00 +3°C° 0.2 mm 5 mps 749 mmHg 69%
    17:00 +2°C° 0.1 mm 5 mps 750 mmHg 76%
    18:00 +1°C° 0.1 mm 4 mps 751 mmHg 82%
    19:00 -1°C° 0.1 mm 4 mps 751 mmHg 89%
    20:00 -1°C° 0.1 mm 4 mps 752 mmHg 90%
    21:00 -2°C° 0.1 mm 4 mps 752 mmHg 91%
    22:00 -2°C° 0.1 mm 4 mps 753 mmHg 93%
    23:00 -1°C° 0.1 mm 3 mps 753 mmHg 93%
    Show more